Wind_Speed
58 58 58 57 57 57 58 57 57 56 58 59 61 63 66 68 68 69 68 65 62 60 58 56 53 48 42 37 34 42 51 47 42 38 35 36 36 35 37 38 38 37
59 59 58 58 57 57 57 56 56 56 58 59 60 63 65 66 67 67 65 62 61 61 58 53 46 41 37 32 30 38 49 47 41 38 34 35 37 37 38 38 36 36
60 60 59 58 57 56 55 55 55 56 57 58 60 62 64 65 65 64 61 59 60 60 55 48 39 35 32 28 27 34 45 46 41 37 33 32 34 34 36 38 36 36
61 61 59 57 55 54 54 54 54 55 56 57 59 60 62 63 63 60 57 57 58 55 49 41 33 29 26 23 24 30 40 44 41 37 33 31 31 31 32 36 38 38
59 59 57 55 54 53 53 52 53 54 55 55 57 59 60 61 60 57 54 54 54 49 41 35 29 24 21 19 21 27 34 39 39 37 35 32 31 31 32 34 37 40
53 54 54 53 53 52 52 52 52 53 53 53 55 56 57 58 57 54 52 51 48 42 35 29 24 19 15 14 18 25 29 33 36 37 36 32 29 30 34 32 32 36
50 49 50 50 51 52 51 51 51 52 51 51 52 53 55 55 53 50 49 47 42 36 29 23 17 12 8 8 14 23 29 30 33 35 36 34 29 27 32 33 31 32
48 47 47 47 48 48 48 48 48 49 48 48 49 51 52 53 50 48 46 42 37 31 25 19 13 8 6 7 11 20 28 31 33 34 34 35 32 30 33 33 30 30
47 45 44 43 44 44 44 45 45 45 45 45 47 48 50 50 48 45 43 39 33 29 24 18 13 9 10 10 12 16 23 28 31 32 33 33 32 34 37 33 27 29
45 43 42 41 41 41 42 42 42 43 43 43 44 45 47 48 46 43 41 37 32 28 24 19 15 14 15 16 16 16 20 24 27 28 31 33 33 34 37 35 31 32
43 42 41 40 40 40 40 40 41 42 41 41 42 43 44 45 44 41 38 36 32 29 25 23 21 19 20 20 20 20 21 25 28 30 32 35 36 35 36 38 37 36
42 42 41 40 40 40 40 40 40 41 40 40 40 41 42 42 42 40 38 35 32 31 28 27 26 24 23 24 25 24 25 27 30 32 34 36 39 39 38 41 44 44
42 41 41 41 40 40 39 40 40 40 40 39 39 40 41 40 40 39 38 35 32 32 32 31 30 29 27 26 28 29 29 30 32 33 36 37 40 42 43 44 47 49
42 41 41 41 40 39 39 40 40 40 40 39 39 39 40 39 38 38 37 35 33 32 35 35 34 34 33 31 31 32 32 33 34 36 38 40 41 43 45 47 48 48
41 41 41 41 40 40 40 40 41 41 40 39 39 39 39 39 38 37 36 36 34 32 34 38 38 37 37 36 35 35 35 35 35 37 39 41 43 44 45 47 48 47
39 40 41 41 41 41 41 41 42 42 41 40 40 39 38 38 38 37 36 35 35 34 33 36 40 41 40 41 40 39 38 38 38 38 39 41 43 45 46 47 47 47
39 40 41 42 43 43 42 42 43 43 43 42 41 40 39 39 39 38 37 35 35 35 34 34 38 42 44 44 44 44 43 43 43 42 42 42 43 44 46 48 49 48
40 40 42 43 44 44 44 44 44 45 45 44 43 42 41 40 40 39 39 37 36 35 34 34 35 40 45 46 47 47 48 47 48 48 47 46 45 45 45 48 50 50
42 42 43 45 46 46 46 45 46 46 47 46 45 44 43 43 42 41 41 40 39 37 36 35 35 37 42 47 50 51 52 52 52 53 52 51 50 49 48 48 50 52
45 44 45 46 47 47 47 47 47 48 48 48 48 47 46 45 45 44 43 42 41 40 39 38 37 36 38 43 48 52 54 55 55 56 57 57 56 54 52 51 51 53
48 48 47 47 48 48 49 49 49 50 50 50 50 50 49 48 47 47 47 46 45 44 43 41 39 38 38 40 44 49 54 57 58 59 60 61 61 61 59 57 55 54
49 49 49 49 49 50 50 50 51 51 51 52 52 52 51 51 50 51 50 50 49 48 47 45 43 41 40 40 42 45 49 54 58 61 62 63 64 65 65 64 61 58
50 50 51 51 51 51 51 52 52 53 53 53 53 53 53 53 53 53 53 53 53 52 51 49 48 45 43 42 43 44 46 50 54 59 62 65 67 68 69 69 68 65
50 50 51 52 52 52 53 53 53 54 54 55 55 55 55 55 55 56 56 56 56 56 55 53 52 50 48 47 46 46 47 48 51 54 59 63 67 70 72 73 73 72
51 51 52 52 53 53 53 54 54 55 55 56 56 56 56 56 57 57 58 59 59 59 58 58 56 55 54 53 51 50 49 50 51 53 56 59 64 69 72 75 76 76
50 51 52 52 53 53 53 54 55 55 56 56 57 56 56 57 58 59 60 61 62 62 61 61 61 60 59 59 57 55 54 53 53 54 56 58 61 65 69 74 77 79
Wind_Direction
279 280 283 285 287 289 291 293 295 298 300 302 305 307 308 308 310 311 311 310 309 308 309 309 305 298 290 279 260 234 228 232 229 221 217 218 225 230 232 235 237 235
279 281 283 285 287 289 291 293 295 298 300 302 305 307 307 309 310 312 312 311 311 310 311 311 304 298 291 278 259 233 223 225 226 219 216 219 225 231 231 231 235 237
278 280 283 285 286 288 290 293 295 297 300 302 305 306 307 309 311 313 313 312 311 312 312 310 304 299 293 278 256 233 219 219 221 216 215 221 227 231 231 228 230 235
277 279 281 283 285 288 290 292 294 296 300 302 304 306 307 310 312 313 314 313 312 312 311 308 304 301 294 276 252 230 216 215 217 214 214 220 224 225 226 228 230 233
278 278 279 280 283 286 289 292 294 296 299 302 304 306 308 311 314 314 314 313 311 311 308 306 305 301 292 273 245 222 211 212 215 212 213 219 223 223 225 230 232 234
279 279 278 278 281 284 287 290 293 296 299 301 303 306 309 312 315 315 314 312 309 308 305 303 305 300 287 266 235 212 206 211 214 213 214 218 224 226 226 231 234 235
281 281 279 279 280 283 285 289 292 294 298 301 303 307 310 313 315 314 314 311 307 303 300 298 299 294 273 249 223 206 205 211 214 216 217 219 225 228 227 230 233 233
282 281 281 280 281 282 285 288 291 293 296 300 303 307 311 314 314 314 314 310 302 297 292 287 282 268 232 219 212 207 208 212 215 219 220 221 225 229 229 228 232 235
281 281 281 280 281 282 284 287 289 292 296 300 303 307 311 314 314 314 314 308 297 290 285 276 264 247 227 214 209 212 215 217 220 221 222 223 225 229 231 228 227 235
279 279 279 279 280 281 283 285 288 291 295 299 303 307 311 313 314 314 313 306 292 282 279 271 257 244 233 219 210 216 222 222 224 223 224 226 227 229 230 224 218 225
278 277 277 277 278 280 282 284 287 290 294 298 302 306 310 313 313 313 313 306 289 276 271 265 256 245 237 226 216 217 223 224 226 228 230 231 230 228 225 219 215 218
277 276 275 275 276 278 280 282 285 288 293 297 300 305 309 312 313 311 312 307 290 273 265 261 256 247 240 233 225 223 227 229 231 232 233 234 232 229 226 221 219 220
275 274 273 273 273 275 277 279 283 287 291 295 298 303 307 311 312 311 310 309 295 275 263 260 257 250 244 238 232 231 233 235 235 235 236 236 234 231 230 228 227 227
273 272 271 270 271 272 274 277 281 285 289 293 296 300 304 308 311 311 309 308 301 283 266 259 257 253 247 241 236 235 237 238 238 238 239 241 240 238 235 234 234 234
272 270 269 269 270 271 273 276 280 284 287 290 294 298 301 305 309 310 308 306 304 293 274 261 257 255 249 244 240 237 238 238 237 237 239 241 243 243 241 239 239 239
271 270 268 268 269 269 271 275 279 282 284 287 291 295 298 302 305 308 308 306 303 299 286 268 259 255 252 247 243 240 238 238 236 234 235 238 242 244 245 245 244 244
271 270 268 267 268 269 271 274 278 280 283 285 289 292 295 298 301 304 306 306 303 300 295 282 266 258 254 251 248 244 241 239 236 235 235 236 239 242 245 246 247 248
271 271 269 267 267 268 270 273 276 279 281 284 287 290 293 295 298 300 303 304 303 300 297 291 279 267 258 254 252 250 248 245 240 237 237 237 238 240 243 246 247 248
272 272 271 269 268 268 270 272 275 277 280 283 286 289 291 293 295 298 300 302 303 301 298 293 288 278 267 259 256 254 253 251 247 242 240 239 240 240 241 243 245 246
273 273 273 270 269 269 270 272 273 275 278 282 285 288 290 292 294 296 297 299 300 301 300 296 291 286 278 268 262 258 255 253 252 248 244 242 241 242 243 243 244 244
274 272 272 272 270 269 270 271 273 275 277 280 284 286 289 291 292 294 295 297 299 299 299 297 294 289 285 278 270 265 260 257 254 252 249 245 243 243 244 245 245 245
275 272 272 272 271 270 270 271 272 274 277 279 282 285 287 289 290 292 293 295 297 297 297 296 295 292 288 284 278 272 267 263 259 256 253 250 247 245 245 246 247 247
274 272 271 272 272 271 271 272 273 274 276 279 281 284 286 287 289 290 292 293 294 295 296 295 294 292 290 286 282 278 273 269 265 262 258 255 252 249 247 247 247 248
272 272 272 272 272 272 272 272 273 274 276 278 281 283 285 286 288 289 291 292 293 294 294 294 293 292 291 288 284 281 277 273 270 266 263 260 257 254 251 249 249 249
271 271 271 272 272 272 273 273 274 275 276 278 280 282 284 286 287 289 290 291 292 293 293 293 293 293 292 290 287 284 280 275 271 268 266 263 260 258 255 253 251 250
271 270 271 272 272 272 273 273 274 276 277 279 281 282 284 285 287 288 289 290 291 292 292 293 293 293 293 292 290 287 284 279 274 269 266 265 263 261 258 256 254 253
Height
10691 10691 10690 10689 10688 10686 10685 10683 10681 10679 10677 10674 10671 10668 10665 10660 10656 10651 10646 10641 10637 10633 10630 10628 10624 10620 10619 10620 10623 10627 10631 10637 10643 10646 10650 10653 10656 10659 10662 10664 10666 10668
10686 10686 10685 10684 10683 10681 10679 10678 10676 10674 10672 10670 10667 10664 10660 10655 10651 10647 10641 10636 10631 10627 10624 10622 10618 10615 10613 10614 10615 10619 10624 10631 10637 10641 10645 10649 10652 10655 10658 10660 10662 10663
10681 10681 10680 10679 10677 10676 10675 10673 10672 10670 10668 10666 10663 10659 10655 10651 10647 10643 10637 10632 10627 10623 10620 10617 10614 10611 10609 10609 10611 10613 10619 10626 10632 10637 10642 10645 10649 10651 10654 10657 10658 10659
10676 10676 10675 10674 10672 10671 10670 10669 10668 10666 10664 10662 10659 10655 10651 10647 10643 10639 10634 10629 10624 10620 10617 10614 10612 10609 10607 10607 10608 10611 10616 10623 10630 10634 10638 10642 10645 10648 10650 10653 10654 10655
10671 10670 10669 10669 10668 10667 10666 10665 10663 10662 10660 10658 10655 10651 10647 10643 10639 10635 10631 10626 10621 10618 10616 10613 10610 10608 10607 10607 10608 10611 10616 10623 10628 10631 10635 10638 10641 10644 10647 10648 10649 10652
10665 10664 10664 10664 10663 10663 10662 10660 10659 10658 10656 10654 10651 10648 10644 10640 10636 10632 10628 10624 10620 10617 10615 10612 10610 10608 10607 10607 10608 10612 10616 10621 10625 10628 10632 10635 10638 10641 10643 10644 10645 10647
10659 10659 10659 10659 10659 10658 10657 10656 10655 10654 10652 10650 10647 10644 10640 10637 10633 10629 10626 10622 10619 10616 10614 10612 10610 10609 10608 10608 10609 10612 10615 10619 10623 10626 10629 10632 10635 10638 10639 10640 10642 10643
10654 10654 10654 10654 10654 10653 10653 10652 10651 10650 10648 10647 10644 10641 10637 10634 10630 10627 10624 10620 10618 10616 10614 10612 10610 10609 10609 10609 10610 10613 10615 10618 10621 10624 10627 10629 10632 10634 10634 10636 10638 10639
10649 10649 10649 10649 10649 10649 10648 10647 10646 10645 10645 10643 10640 10637 10634 10631 10628 10625 10622 10619 10617 10615 10613 10612 10611 10610 10610 10610 10611 10613 10615 10617 10620 10622 10624 10626 10628 10629 10630 10632 10634 10634
10645 10645 10645 10645 10645 10644 10644 10643 10642 10641 10641 10639 10637 10634 10631 10628 10625 10622 10620 10617 10616 10615 10612 10611 10610 10610 10609 10610 10611 10612 10614 10616 10618 10620 10621 10622 10624 10626 10626 10628 10631 10631
10640 10640 10640 10640 10640 10640 10639 10638 10638 10637 10637 10635 10633 10631 10628 10625 10622 10620 10618 10615 10614 10613 10612 10610 10609 10608 10608 10609 10610 10611 10613 10614 10615 10617 10618 10618 10620 10621 10622 10624 10626 10626
10635 10635 10635 10635 10635 10635 10634 10634 10633 10633 10632 10631 10629 10627 10625 10623 10620 10617 10615 10613 10611 10611 10610 10608 10607 10607 10607 10607 10608 10609 10611 10612 10613 10613 10613 10614 10615 10616 10618 10619 10620 10620
10630 10629 10630 10630 10630 10630 10629 10629 10629 10628 10628 10627 10625 10623 10622 10620 10617 10614 10612 10610 10608 10608 10607 10606 10605 10605 10605 10605 10605 10606 10607 10608 10609 10609 10609 10610 10610 10611 10612 10613 10614 10615
10624 10624 10624 10624 10625 10625 10624 10624 10624 10623 10623 10622 10621 10619 10618 10616 10614 10612 10609 10607 10605 10604 10604 10603 10603 10602 10602 10602 10602 10602 10603 10603 10604 10605 10605 10606 10606 10607 10608 10608 10609 10611
10619 10619 10619 10619 10619 10619 10619 10619 10619 10619 10618 10617 10616 10615 10614 10612 10611 10609 10606 10604 10603 10601 10600 10599 10599 10599 10599 10600 10599 10599 10599 10599 10599 10600 10600 10601 10601 10602 10603 10604 10605 10606
10614 10614 10614 10614 10614 10614 10614 10614 10614 10613 10613 10612 10612 10611 10610 10608 10606 10605 10604 10601 10599 10598 10596 10595 10595 10595 10595 10596 10596 10596 10595 10595 10595 10594 10595 10596 10596 10597 10598 10599 10600 10601
10609 10609 10608 10608 10608 10608 10608 10608 10608 10608 10607 10607 10606 10606 10605 10604 10602 10601 10600 10598 10596 10595 10593 10592 10591 10590 10591 10591 10591 10591 10591 10591 10590 10590 10590 10590 10591 10592 10592 10593 10594 10594
10603 10603 10603 10602 10602 10602 10603 10603 10603 10602 10601 10601 10601 10600 10600 10599 10598 10596 10595 10594 10592 10591 10590 10588 10586 10585 10585 10586 10586 10586 10586 10586 10586 10585 10585 10584 10585 10585 10586 10587 10587 10588
10598 10597 10597 10597 10596 10597 10597 10597 10597 10596 10595 10595 10594 10594 10594 10593 10593 10592 10590 10589 10588 10586 10585 10584 10582 10581 10580 10580 10580 10580 10580 10581 10581 10581 10580 10579 10578 10579 10579 10580 10581 10582
10592 10592 10591 10591 10591 10591 10591 10591 10591 10590 10589 10589 10588 10588 10587 10587 10587 10586 10585 10584 10583 10581 10580 10578 10577 10576 10575 10574 10573 10573 10573 10574 10574 10575 10574 10573 10572 10572 10573 10573 10574 10575
10586 10586 10586 10585 10585 10585 10584 10584 10584 10584 10583 10583 10582 10581 10580 10580 10580 10579 10578 10577 10576 10576 10574 10573 10571 10570 10569 10568 10567 10566 10566 10566 10566 10567 10567 10567 10566 10565 10565 10566 10566 10567
10580 10580 10580 10579 10579 10578 10578 10578 10577 10577 10576 10576 10575 10575 10574 10573 10572 10572 10571 10570 10569 10569 10568 10567 10565 10564 10562 10561 10560 10559 10558 10558 10558 10558 10559 10559 10559 10558 10558 10558 10558 10558
10575 10574 10573 10573 10573 10572 10571 10571 10570 10570 10570 10569 10569 10568 10567 10566 10565 10564 10563 10563 10562 10561 10560 10559 10558 10557 10555 10554 10552 10552 10551 10550 10549 10549 10549 10549 10550 10549 10549 10549 10549 10549
10568 10568 10567 10567 10566 10565 10565 10564 10564 10563 10563 10562 10562 10561 10560 10558 10557 10556 10555 10554 10553 10552 10551 10550 10549 10548 10548 10546 10545 10544 10543 10542 10541 10540 10540 10539 10539 10539 10540 10540 10540 10540
10562 10562 10561 10560 10560 10559 10558 10558 10557 10556 10556 10555 10554 10553 10552 10551 10549 10548 10546 10545 10544 10543 10542 10540 10539 10538 10538 10537 10536 10535 10534 10533 10532 10531 10531 10530 10529 10528 10528 10529 10530 10530
10556 10555 10555 10554 10553 10553 10552 10551 10550 10549 10548 10548 10547 10546 10545 10543 10542 10540 10538 10536 10534 10533 10532 10530 10529 10527 10526 10526 10525 10525 10524 10523 10522 10522 10521 10520 10519 10518 10517 10517 10518 10518